Tracking 17925 objects as of 24-January-2017
HD Live streaming from Space Station
objects crossing your sky now

COSMOS 2286

Track COSMOS 2286 now!
COSMOS 2286 is classified as:


NORAD ID: 23194
Int'l Code: 1994-048A
Perigee: 3,751.1 km
Apogee: 36,618.4 km
Inclination: 67.7 °
Period: 717.8 minutes
Semi major axis: 26555 km
RCS: 14.1879 m2 (large)
Launch date: August 5, 1994
Source: Commonwealth of Independent States (former USSR) (CIS)
Launch site: PLESETSK MISSILE AND SPACE COMPLEX (PKMTR)
Your satellite tracking list
Your tracking list is empty





NASA's NSSDC Master Catalog

Two Line Element Set (TLE):
1 23194U 94048A   17023.05065398 -.00000511  00000-0  00000+0 0  9990
2 23194  67.7439  20.6949 6188349 184.1695 166.2904  2.00615507164623
Source of the keplerian elements: AFSPC